Location: Rockford
(40.2514°N, 96.6004°W)
Time: 09:13:10
(UTC+00:00)

LightSail 2 - Pass Details

Date: 23 September 2019
Orbit: 707 x 723 km, 24.0° (Epoch: 13 October)

Event Time Altitude Azimuth Distance (km) Brightness Sun altitude
Exits shadow 11:10:28 - 210° (SSW) 2,473 7.6 -13.0°
Reaches altitude 10° 11:12:19 10° 192° (SSW) 2,160 7.4 -12.7°
Maximum altitude 11:13:55 11° 174° (S) 2,065 7.5 -12.4°
Drops below altitude 10° 11:15:31 10° 155° (SSE) 2,162 7.8 -12.1°
Sets 11:19:43 0° 123° (ESE) 3,083 9.2 -11.3°
